Location: Bartshausen
(51.8454°N, 9.8167°E)
Time: 06:40:08
(UTC+00:00)

Cosmos 2360 Rocket - Pass Details

Date: 08 November 2025
Orbit: 833 x 843 km, 71.0° (Epoch: 11 December)

Event Time Altitude Azimuth Distance (km) Brightness Sun altitude
Exits shadow 03:59:26 42° 313° (NW) 1,192 2.6 -23.0°
Drops below altitude 10° 04:04:45 10° 22° (NNE) 2,474 4.9 -22.2°
Sets 04:07:21 0° 30° (NNE) 3,411 5.8 -21.8°
